• în Republica Moldova
  • Lista ţărilor
  • Pe 7 zile
  • Temperatura apei
  • Hartă satelitară
  • Meteo pe hartă
  • Widget-uri
  • user-avatar
    Intrare

    Meteo pe oră la Kaprun

    Astăzi, 29 Iunie, Joi

    Timp Temperatura Precipitaţii Vânt Presiune Umiditate
    00:00 +6°C° 0,1 mm 2 m/s 588 mmHg 95%
    01:00 +6°C° 0,1 mm 2 m/s 588 mmHg 95%
    02:00 +5°C° 0,3 mm 2 m/s 587 mmHg 96%
    03:00 +4°C° 0,3 mm 2 m/s 587 mmHg 97%
    04:00 +5°C° 0,3 mm 1 m/s 587 mmHg 97%
    05:00 +6°C° 0,4 mm 1 m/s 587 mmHg 96%
    06:00 +7°C° 0,4 mm 1 m/s 588 mmHg 95%
    07:00 +8°C° 0,4 mm 1 m/s 589 mmHg 94%
    08:00 +8°C° 0,6 mm 1 m/s 589 mmHg 92%
    09:00 +8°C° 0,6 mm 1 m/s 590 mmHg 90%
    10:00 +9°C° 0,6 mm 1 m/s 590 mmHg 88%
    11:00 +9°C° 0,8 mm 1 m/s 590 mmHg 87%
    12:00 +10°C° 0,8 mm 1 m/s 591 mmHg 86%
    13:00 +10°C° 0,8 mm 1 m/s 591 mmHg 86%
    14:00 +10°C° 0,8 mm 1 m/s 591 mmHg 87%
    15:00 +9°C° 0,8 mm 2 m/s 591 mmHg 88%
    16:00 +9°C° 0,8 mm 2 m/s 591 mmHg 89%
    17:00 +8°C° 1 mm 2 m/s 591 mmHg 91%
    18:00 +8°C° 1 mm 2 m/s 591 mmHg 93%
    19:00 +7°C° 1 mm 2 m/s 591 mmHg 95%
    20:00 +6°C° 1,1 mm 2 m/s 591 mmHg 96%
    21:00 +6°C° 1,1 mm 1 m/s 591 mmHg 97%
    22:00 +5°C° 1,1 mm 1 m/s 591 mmHg 98%
    23:00 +5°C° 0,2 mm 1 m/s 591 mmHg 98%

    Mâine, 30 Iunie, Vineri

    Timp Temperatura Precipitaţii Vânt Presiune Umiditate
    00:00 +5°C° 0,2 mm 1 m/s 591 mmHg 97%
    01:00 +4°C° 0,2 mm 1 m/s 591 mmHg 97%
    02:00 +4°C° 0,3 mm 1 m/s 591 mmHg 96%
    03:00 +4°C° 0,3 mm 1 m/s 591 mmHg 96%
    04:00 +4°C° 0,3 mm 1 m/s 591 mmHg 96%
    05:00 +5°C° 0,3 mm 1 m/s 592 mmHg 95%
    06:00 +6°C° 0,3 mm 1 m/s 592 mmHg 93%
    07:00 +6°C° 0,3 mm 1 m/s 593 mmHg 92%
    08:00 +6°C° 0,4 mm 2 m/s 594 mmHg 87%
    09:00 +7°C° 0,4 mm 2 m/s 594 mmHg 82%
    10:00 +8°C° 0,4 mm 3 m/s 595 mmHg 77%
    11:00 +9°C° 0,7 mm 3 m/s 595 mmHg 77%
    12:00 +9°C° 0,7 mm 3 m/s 595 mmHg 77%
    13:00 +9°C° 0,7 mm 3 m/s 595 mmHg 76%
    14:00 +9°C° 0,5 mm 3 m/s 595 mmHg 77%
    15:00 +9°C° 0,5 mm 3 m/s 595 mmHg 78%
    16:00 +9°C° 0,5 mm 2 m/s 595 mmHg 78%
    17:00 +8°C° 0,5 mm 2 m/s 595 mmHg 81%
    18:00 +7°C° 0,5 mm 2 m/s 594 mmHg 85%
    19:00 +7°C° 0,5 mm 2 m/s 594 mmHg 88%
    20:00 +6°C° 0,5 mm 1 m/s 594 mmHg 91%
    21:00 +5°C° 0,5 mm 1 m/s 593 mmHg 94%
    22:00 +3°C° 0,5 mm 1 m/s 593 mmHg 96%
    23:00 +3°C° 0,4 mm 1 m/s 593 mmHg 96%

    Poimâine, 1 Iulie, Sâmbătă

    Timp Temperatura Precipitaţii Vânt Presiune Umiditate
    00:00 +3°C° 0,4 mm 1 m/s 592 mmHg 96%
    01:00 +3°C° 0,4 mm 1 m/s 592 mmHg 96%
    02:00 +3°C° 0,5 mm 1 m/s 593 mmHg 97%
    03:00 +3°C° 0,5 mm 1 m/s 593 mmHg 97%
    04:00 +3°C° 0,5 mm 1 m/s 593 mmHg 97%
    05:00 +4°C° 0,2 mm 1 m/s 594 mmHg 94%
    06:00 +5°C° 0,2 mm 1 m/s 594 mmHg 91%
    07:00 +6°C° 0,2 mm 1 m/s 595 mmHg 88%
    08:00 +8°C° 0,1 mm 1 m/s 596 mmHg 81%
    09:00 +9°C° 0,1 mm 1 m/s 597 mmHg 74%
    10:00 +11°C° 0,1 mm 1 m/s 597 mmHg 68%
    11:00 +11°C° 0,4 mm 1 m/s 597 mmHg 69%
    12:00 +11°C° 0,4 mm 1 m/s 597 mmHg 70%
    13:00 +11°C° 0,4 mm 1 m/s 597 mmHg 72%
    14:00 +11°C° 1 mm 1 m/s 597 mmHg 76%
    15:00 +10°C° 1 mm 1 m/s 597 mmHg 79%
    16:00 +10°C° 1 mm 1 m/s 596 mmHg 83%
    17:00 +9°C° 1 mm 1 m/s 596 mmHg 87%
    18:00 +8°C° 1 mm 1 m/s 596 mmHg 90%
    19:00 +8°C° 1 mm 1 m/s 596 mmHg 94%
    20:00 +6°C° 0,6 mm 1 m/s 596 mmHg 95%
    21:00 +5°C° 0,6 mm 1 m/s 596 mmHg 96%
    22:00 +4°C° 0,6 mm 1 m/s 596 mmHg 97%
    23:00 +4°C° 0,2 mm 1 m/s 596 mmHg 97%

    2 Iulie, Duminică

    Timp Temperatura Precipitaţii Vânt Presiune Umiditate
    00:00 +4°C° 0,2 mm 1 m/s 596 mmHg 97%
    01:00 +4°C° 0,2 mm 1 m/s 596 mmHg 97%
    02:00 +4°C° 0 mm 1 m/s 596 mmHg 97%
    03:00 +3°C° 0 mm 2 m/s 596 mmHg 97%
    04:00 +3°C° 0 mm 2 m/s 596 mmHg 97%
    05:00 +3°C° 0,4 mm 2 m/s 596 mmHg 96%
    06:00 +4°C° 0,4 mm 2 m/s 597 mmHg 94%
    07:00 +5°C° 0,4 mm 2 m/s 597 mmHg 93%
    08:00 +5°C° 0,6 mm 2 m/s 598 mmHg 89%
    09:00 +6°C° 0,6 mm 2 m/s 598 mmHg 85%
    10:00 +7°C° 0,6 mm 2 m/s 599 mmHg 81%
    11:00 +7°C° 0,5 mm 2 m/s 599 mmHg 80%
    12:00 +8°C° 0,5 mm 2 m/s 599 mmHg 78%
    13:00 +8°C° 0,5 mm 2 m/s 600 mmHg 77%
    14:00 +8°C° 0,2 mm 2 m/s 600 mmHg 77%
    15:00 +8°C° 0,2 mm 2 m/s 600 mmHg 77%
    16:00 +8°C° 0,2 mm 2 m/s 600 mmHg 77%
    17:00 +8°C° 0,1 mm 2 m/s 600 mmHg 80%
    18:00 +7°C° 0,1 mm 2 m/s 600 mmHg 84%
    19:00 +7°C° 0,1 mm 2 m/s 600 mmHg 87%
    20:00 +6°C° 0 mm 2 m/s 600 mmHg 90%
    21:00 +5°C° 0 mm 2 m/s 600 mmHg 92%
    22:00 +4°C° 0 mm 2 m/s 600 mmHg 94%
    23:00 +4°C° 0,1 mm 2 m/s 600 mmHg 94%

    3 Iulie, Luni

    Timp Temperatura Precipitaţii Vânt Presiune Umiditate
    00:00 +4°C° 0,1 mm 2 m/s 600 mmHg 94%
    01:00 +3°C° 0,1 mm 2 m/s 600 mmHg 94%
    02:00 +3°C° 0,5 mm 2 m/s 599 mmHg 94%
    03:00 +3°C° 0,5 mm 2 m/s 599 mmHg 95%
    04:00 +3°C° 0,5 mm 2 m/s 599 mmHg 95%
    05:00 +4°C° 0,2 mm 2 m/s 600 mmHg 93%
    06:00 +5°C° 0,2 mm 2 m/s 600 mmHg 91%
    07:00 +6°C° 0,2 mm 2 m/s 601 mmHg 89%
    08:00 +8°C° 0,1 mm 1 m/s 602 mmHg 83%
    09:00 +9°C° 0,1 mm 1 m/s 602 mmHg 77%
    10:00 +11°C° 0,1 mm 1 m/s 603 mmHg 72%
    11:00 +12°C° 0,1 mm 1 m/s 603 mmHg 69%
    12:00 +12°C° 0,1 mm 1 m/s 603 mmHg 66%
    13:00 +13°C° 0,1 mm 2 m/s 603 mmHg 63%
    14:00 +13°C° 0,2 mm 2 m/s 603 mmHg 65%
    15:00 +13°C° 0,2 mm 2 m/s 603 mmHg 67%
    16:00 +13°C° 0,2 mm 2 m/s 602 mmHg 69%
    17:00 +12°C° 0,1 mm 2 m/s 602 mmHg 75%
    18:00 +11°C° 0,1 mm 1 m/s 601 mmHg 82%
    19:00 +10°C° 0,1 mm 1 m/s 601 mmHg 88%
    20:00 +8°C° 0 mm 1 m/s 600 mmHg 91%
    21:00 +6°C° 0 mm 1 m/s 600 mmHg 94%
    22:00 +4°C° 0 mm 1 m/s 599 mmHg 97%
    23:00 +4°C° 0 mm 1 m/s 599 mmHg 97%

    4 Iulie, Marţi

    Timp Temperatura Precipitaţii Vânt Presiune Umiditate
    00:00 +4°C° 0 mm 1 m/s 599 mmHg 97%
    01:00 +4°C° 0 mm 1 m/s 599 mmHg 96%
    02:00 +4°C° 0 mm 1 m/s 598 mmHg 96%
    03:00 +4°C° 0 mm 1 m/s 598 mmHg 96%
    04:00 +4°C° 0 mm 1 m/s 598 mmHg 96%
    05:00 +5°C° 0 mm 1 m/s 599 mmHg 94%
    06:00 +7°C° 0 mm 1 m/s 600 mmHg 91%
    07:00 +8°C° 0 mm 1 m/s 601 mmHg 89%
    08:00 +10°C° 0 mm 1 m/s 601 mmHg 82%
    09:00 +11°C° 0 mm 1 m/s 602 mmHg 75%
    10:00 +13°C° 0 mm 1 m/s 602 mmHg 68%
    11:00 +13°C° 0,1 mm 1 m/s 602 mmHg 66%
    12:00 +14°C° 0,1 mm 1 m/s 602 mmHg 63%
    13:00 +15°C° 0,1 mm 2 m/s 602 mmHg 61%
    14:00 +15°C° 0,3 mm 2 m/s 602 mmHg 65%
    15:00 +14°C° 0,3 mm 2 m/s 602 mmHg 68%
    16:00 +14°C° 0,3 mm 2 m/s 602 mmHg 72%
    17:00 +13°C° 0,3 mm 1 m/s 601 mmHg 78%
    18:00 +12°C° 0,3 mm 1 m/s 601 mmHg 84%
    19:00 +11°C° 0,3 mm 1 m/s 600 mmHg 91%
    20:00 +9°C° 0 mm 1 m/s 600 mmHg 93%
    21:00 +7°C° 0 mm 1 m/s 599 mmHg 96%
    22:00 +5°C° 0 mm 1 m/s 599 mmHg 98%
    23:00 +5°C° 0 mm 1 m/s 598 mmHg 98%
    Arată mai mult